OSCAR 7 (AO-7) 1 07530U 74089B 26062.50590477 -.00000043 00000+0 20853-4 0 9995 2 07530 101.9969 74.6292 0012027 334.1391 156.0176 12.53696255347271 PHASE 3B (AO-10) 1 14129U 83058B 26061.53393855 -.00000164 00000+0 00000+0 0 9997 2 14129 25.9320 237.4860 6049007 86.0782 336.7646 2.05874052293290 UOSAT 2 (UO-11) 1 14781U 84021B 26062.49736567 .00002024 00000+0 21301-3 0 9996 2 14781 97.7937 29.3491 0007859 162.1253 198.0243 14.90478819241388 LUSAT (LO-19) 1 20442U 90005G 26062.48119502 .00000198 00000+0 87372-4 0 9990 2 20442 98.8939 81.3323 0012103 151.7127 208.4716 14.34084936887240 EYESAT A (AO-27) 1 22825U 93061C 26062.41375269 .00000152 00000+0 74772-4 0 9999 2 22825 98.6995 129.8188 0009224 55.9139 304.2917 14.30910603691877 ITAMSAT (IO-26) 1 22826U 93061D 26062.42457052 .00000175 00000+0 82931-4 0 9993 2 22826 98.6943 129.7364 0009527 40.5322 319.6568 14.31334432692184 RADIO ROSTO (RS15) 1 23439U 94085A 26062.48729517 -.00000012 00000+0 87855-3 0 9995 2 23439 64.8146 114.1652 0152441 23.1978 337.5733 11.27583800283985 JAS-2 (FO-29) 1 24278U 96046B 26062.51035968 -.00000016 00000+0 19973-4 0 9991 2 24278 98.5391 285.7656 0350086 10.7932 350.0477 13.53268418458872 TECHSAT 1B (GO-32) 1 25397U 98043D 26062.48834940 .00000114 00000+0 69470-4 0 9991 2 25397 99.0020 52.6093 0001876 129.3621 230.7723 14.24404069436280 ISS (ZARYA) 1 25544U 98067A 26062.44686659 .00009386 00000+0 18180-3 0 9990 2 25544 51.6317 103.2200 0008211 152.5429 207.5995 15.48418100555366 PCSAT (NO-44) 1 26931U 01043C 26062.48161529 .00000239 00000+0 12024-3 0 9996 2 26931 67.0509 157.6677 0007028 265.3562 94.6737 14.31908343275315 SAUDISAT 1C (SO-50) 1 27607U 02058C 26062.47993038 .00002120 00000+0 26749-3 0 9991 2 27607 64.5510 95.9780 0075099 281.7827 77.4862 14.82753006248787 CUTE-1 (CO-55) 1 27844U 03031E 26062.45192711 .00000451 00000+0 21412-3 0 9990 2 27844 98.6779 72.3282 0010480 128.7736 231.4380 14.24260007176623 CUBESAT XI-IV (CO-57) 1 27848U 03031J 26062.45798096 .00000377 00000+0 18495-3 0 9996 2 27848 98.6808 72.1317 0010118 145.3523 214.8316 14.23556086176330 MOZHAETS 4 (RS22) 1 27939U 03042A 26062.54613642 .00001563 00000+0 25018-3 0 9999 2 27939 98.3425 243.9365 0010288 241.5298 210.7974 14.73231881199990 CUBESAT XI-V 1 28895U 05043F 26062.39543610 .00002713 00000+0 43696-3 0 9994 2 28895 98.2815 215.9011 0014379 177.1560 182.9731 14.72285021 86183 CUTE-1.7+APD II (CO-65) 1 32785U 08021C 26062.54388977 .00008842 00000+0 57393-3 0 9994 2 32785 97.8197 41.9055 0010298 37.6811 322.5136 15.08263283969260 SEEDS II (CO-66) 1 32791U 08021J 26062.50727596 .00024010 00000+0 86001-3 0 9994 2 32791 97.7506 55.6816 0002564 18.3674 341.7657 15.28751446971121 YUBILEINY (RS30) 1 32953U 08025A 26062.51100713 .00000139 00000+0 92499-3 0 9999 2 32953 82.4985 61.1679 0019301 178.7470 181.3662 12.43176283806567 KKS-1 (KISEKI) 1 33499U 09002H 26062.45912033 .00002384 00000+0 30161-3 0 9992 2 33499 98.1190 343.2598 0006468 275.5123 84.5352 14.82799562920529 SWISSCUBE 1 35932U 09051B 26062.25053256 .00001580 00000+0 32317-3 0 9993 2 35932 98.4106 328.2791 0006638 171.9221 188.2088 14.62237845873678 BEESAT-1 1 35933U 09051C 26062.20607967 .00001338 00000+0 27954-3 0 9995 2 35933 98.4036 328.0870 0004858 183.3612 176.7557 14.61514773873704 ITUPSAT1 1 35935U 09051E 26062.24174435 .00001219 00000+0 26259-3 0 9995 2 35935 98.4124 327.4243 0006839 199.0996 160.9948 14.60251254873273 XIWANG-1 (HOPE-1) 1 36122U 09072B 26062.52904303 .00000338 00000+0 10011-2 0 9992 2 36122 100.3901 18.1080 0008034 112.6614 247.5350 13.16437203779104 O/OREOS (USA 219) 1 37224U 10062C 26062.09954628 .00002990 00000+0 29097-3 0 9995 2 37224 71.9727 320.5587 0016930 267.7511 92.1721 14.93236806100804 JUGNU 1 37839U 11058B 26062.49198066 .00000519 00000+0 13163-3 0 9995 2 37839 19.9596 230.5507 0018652 349.2806 48.8194 14.13737417744059 SRMSAT 1 37841U 11058D 26062.20286726 .00000470 00000+0 11156-3 0 9994 2 37841 19.9732 340.9649 0011887 118.1185 34.7703 14.11544671742822 STRAND-1 1 39090U 13009E 26062.43733931 .00000484 00000+0 17733-3 0 9992 2 39090 98.3881 245.2845 0008656 180.0154 180.1034 14.37088223681879 ZACUBE-1 (TSHEPISOSAT) 1 39417U 13066B 26062.39401809 .00005987 00000+0 47471-3 0 9994 2 39417 97.8182 24.1867 0041615 241.2498 118.4542 15.00243445664869 GOMX-1 1 39430U 13066Q 26062.55869351 .00002482 00000+0 37849-3 0 9992 2 39430 97.6571 269.6461 0130614 57.0329 304.3356 14.69069329654403 CUBEBUG-2 (LO-74) 1 39440U 13066AA 26062.33034220 .00007689 00000+0 72266-3 0 9994 2 39440 97.8808 10.9934 0059407 20.0378 340.3154 14.92855210661193 FUNCUBE-1 (AO-73) 1 39444U 13066AE 26062.33666781 .00010715 00000+0 69419-3 0 9991 2 39444 97.8168 31.7675 0036610 201.2550 158.7158 15.07759862663702 UWE-3 1 39446U 13066AG 26062.37612225 .00006424 00000+0 56315-3 0 9994 2 39446 97.8593 17.8840 0048803 314.2540 45.4680 14.96089254661759 UNISAT-6 1 40012U 14033C 26062.41795623 .00004289 00000+0 46892-3 0 9995 2 40012 97.7710 217.1251 0046431 58.1848 302.3877 14.87578755630434 DUCHIFAT-1 1 40021U 14033M 26062.11216218 .00060633 00000+0 11193-2 0 9990 2 40021 98.0644 107.7691 0006720 103.1192 257.0807 15.48874704639255 QB50P1 1 40025U 14033R 26062.50739140 .00011655 00000+0 60376-3 0 9999 2 40025 98.0997 66.3728 0007689 217.9822 142.0868 15.16352684637004 LILACSAT-2 1 40908U 15049K 26062.50272822 .00020241 00000+0 39186-3 0 9992 2 40908 97.4815 95.5129 0005600 276.7395 83.3217 15.47748312579386 FOX-1A (AO-85) 1 40967U 15058D 26062.48596935 .00004897 00000+0 44399-3 0 9999 2 40967 64.7735 247.3024 0129227 98.4292 263.1492 14.90289039 97816 CAS-2T & KS-1Q 1 41847U 16066G 26062.19565041 .00001721 00000+0 24840-3 0 9991 2 41847 98.3899 139.1171 0343793 91.1199 272.9394 14.44445019489490 RADFXSAT (FOX-1B) 1 43017U 17073E 26062.50191008 .00012637 00000+0 57336-3 0 9998 2 43017 97.4873 291.9293 0155427 333.6014 25.7355 15.10708726449421 DIWATA-2B 1 43678U 18084H 26062.51817439 .00003587 00000+0 29393-3 0 9994 2 43678 98.1033 254.3016 0011130 146.1531 214.0404 14.99922091400377 ES'HAIL 2 1 43700U 18090A 26062.36572473 .00000129 00000+0 00000+0 0 9995 2 43700 0.0219 235.6978 0002575 139.0981 303.7709 1.00270770 26616 FOX-1CLIFF (AO-95) 1 43770U 18099N 26062.14430379 .00013475 00000+0 55490-3 0 9990 2 43770 97.4530 122.9032 0008885 10.7969 349.3457 15.24199958397053 ITASAT 1 43786U 18099AE 26062.11512135 .00008549 00000+0 42828-3 0 9992 2 43786 97.4182 115.7771 0012904 9.8071 350.3412 15.17544013396817 JY1SAT (JO-97) 1 43803U 18099AX 26062.14683024 .00019786 00000+0 68272-3 0 9997 2 43803 97.4270 124.8242 0004615 287.7620 72.3116 15.30000981397398 UWE-4 1 43880U 18111E 26062.30619931 .00035765 00000+0 91036-3 0 9990 2 43880 97.5863 346.3647 0008796 3.7504 356.3805 15.39460358394454 TIANYAN 01 1 44881U 19093C 26062.49214800 .00001633 00000+0 19106-3 0 9993 2 44881 97.7629 137.2773 0015031 76.2782 284.0106 14.86324786335718 RS-44 & BREEZE-KM R/B 1 44909U 19096E 26062.46207020 .00000009 00000+0 -13046-4 0 9995 2 44909 82.5190 49.9536 0218172 31.8470 329.5610 12.79747398288824 SALSAT 1 46495U 20068K 26062.45227627 .00011292 00000+0 41535-3 0 9990 2 46495 97.8846 59.2205 0008758 322.9307 37.1326 15.28029625299203 XW-3 (CAS-9) 1 50466U 21131B 26062.53350738 .00000705 00000+0 23179-3 0 9995 2 50466 98.4970 155.5246 0005099 64.9872 295.1846 14.41241201219891 GREENCUBE (IO-117) 1 53109U 22080E 26061.72898270 -.00000003 00000+0 00000+0 0 9990 2 53109 70.1617 335.2737 0009043 313.3588 46.6318 6.42583122 85227 UMKA 1 (RS40S) 1 57172U 23091G 26062.44796798 .00008905 00000+0 42163-3 0 9997 2 57172 97.5193 121.5798 0014477 125.6552 234.6032 15.19481763147940 CUBESX-HSE 3 (RS42S) 1 57178U 23091N 26062.54088986 .00016668 00000+0 60394-3 0 9998 2 57178 97.5222 126.9495 0012810 106.6872 253.5774 15.28372193148271 MONITOR-3 (RS58S) 1 57180U 23091Q 26062.54741550 .00013974 00000+0 55184-3 0 9992 2 57180 97.5217 125.3275 0013743 111.2617 249.0090 15.25547611148178 MONITOR-4 (RS57S) 1 57182U 23091S 26062.53288521 .00014030 00000+0 55265-3 0 9991 2 57182 97.5211 125.2775 0013683 111.7720 248.4976 15.25632344148175 MONITOR-2 (RS39S) 1 57184U 23091U 26062.54224443 .00006784 00000+0 33799-3 0 9992 2 57184 97.5216 121.5164 0012945 117.6295 242.6254 15.17822142147920 SVYATOBOR 1 (RS60S) 1 57187U 23091X 26062.53116738 .00012432 00000+0 50518-3 0 9996 2 57187 97.5223 125.8476 0011251 104.0516 256.1973 15.24647512148203 VIZARD-METEO (RS38S) 1 57189U 23091Z 26062.49543802 .00021003 00000+0 67058-3 0 9990 2 57189 97.5212 130.0836 0009031 91.7955 268.4321 15.32468632148489 NANOZOND 1 (RS49S) 1 57190U 23091AA 26062.44820282 .00196082 00000+0 14843-2 0 9990 2 57190 97.5096 142.2057 0000603 62.1708 297.9616 15.71807006149294 POLYTECH-UNIVERSE 3 (R*) 1 57191U 23091AB 26062.45115338 .00007301 00000+0 36101-3 0 9998 2 57191 97.5190 120.9330 0017094 134.1823 226.0819 15.18000788147904 UTMN 2 (RS27S) 1 57203U 23091AP 26062.48729253 .00016731 00000+0 59063-3 0 9991 2 57203 97.5214 128.3991 0009927 95.6159 264.6213 15.29256820148379 KUZGTU 1 (RS47S) 1 57217U 23091AV 26062.51217435 .00016059 00000+0 60197-3 0 9997 2 57217 97.5198 126.0512 0012995 109.4378 250.8266 15.27258055148235 SONATE-2 1 59112U 24043Q 26062.33696594 .00042896 00000+0 74322-3 0 9991 2 59112 97.5388 206.9640 0007798 228.8170 131.2409 15.50754835111440 MESAT1 1 60209U 24125G 26062.51561285 .00048280 00000+0 77236-3 0 9999 2 60209 97.2462 278.2975 0011153 248.7184 111.2879 15.52930090 93111 OOV-CUBE (TUBSAT-30) 1 60240U 24128F 26062.43914677 .00004341 00000+0 33315-3 0 9995 2 60240 61.9934 234.1624 0055057 111.1509 249.5478 15.02190431 90226 COLIBRI-S (RS67S) 1 61746U 24199M 26062.45997733 .00026397 00000+0 59708-3 0 9990 2 61746 97.3170 295.5926 0008049 312.9010 47.1561 15.43097231121089 HORS 3 (RS81S) 1 61753U 24199U 26062.44128100 .00038710 00000+0 74297-3 0 9993 2 61753 97.3140 296.6364 0006208 320.7504 39.3296 15.47860886121167 HORS 4 (RS82S) 1 61754U 24199V 26062.45570377 .00045216 00000+0 78855-3 0 9995 2 61754 97.3117 297.3240 0005929 317.7557 42.3238 15.50571829121212 HORIZON (RS59S) 1 61757U 24199Y 26062.49733582 .00140846 00000+0 12398-2 0 9995 2 61757 97.3085 301.0325 0003221 292.0730 68.0189 15.68313082121457 ARCTICSAT 1 (RS74S) 1 61762U 24199AD 26062.49342102 .00105764 00000+0 10985-2 0 9995 2 61762 97.3103 300.5892 0003611 288.7437 71.3430 15.64281350121427 SIT-2086 1 61764U 24199AF 26062.44953657 .00027911 00000+0 54800-3 0 9997 2 61764 97.3135 297.3826 0006312 299.7850 60.2772 15.47268594118053 RUZAEVKA 390 (RS44S) 1 61766U 24199AH 26062.43927156 .00961673 46616-3 17289-2 0 9991 2 61766 97.2870 304.2866 0001823 158.3638 201.7718 16.01759118118520 HYPERVIEW 1G (RS66S) 1 61772U 24199AP 26062.46026933 .00070381 00000+0 96946-3 0 9992 2 61772 97.3101 298.3741 0007104 313.8124 46.2543 15.56981947118137 ALTAIR (RS65S) 1 61779U 24199AW 26062.44313892 .00014840 00000+0 44034-3 0 9999 2 61779 97.3193 292.5494 0012663 332.6997 27.3579 15.34829017120888 ASRTU-1 (AO-123) 1 61781U 24199AY 26062.48422583 .00010992 00000+0 33646-3 0 9995 2 61781 97.3166 292.1282 0013404 334.3685 25.6892 15.33908945117713 TUSUR GO (RS78S) 1 61782U 24199AZ 26062.44838054 .00157372 00000+0 13619-2 0 9997 2 61782 97.3044 299.9912 0004324 311.7142 48.3749 15.68676291118248 SAMSAT-IONOSPHERE (RS7*) 1 61784U 24199BB 26062.47002022 .00042733 00000+0 78860-3 0 9994 2 61784 97.3127 296.4491 0009206 320.5322 39.5257 15.48945237121155 RTU MIREA 1 (RS51S) 1 61785U 24199BC 26062.47549544 .00048309 00000+0 83491-3 0 9991 2 61785 97.3127 296.8814 0008932 316.4452 43.6094 15.50788192118038 TEVEL2-4 1 63213U 25052D 26062.22262764 .00021516 00000+0 72866-3 0 9992 2 63213 97.4038 318.6689 0004517 107.9391 252.2342 15.30590376 53889 TEVEL2-5 1 63214U 25052E 26062.49460640 .00023251 00000+0 78957-3 0 9990 2 63214 97.4034 318.9144 0004491 106.9754 253.1979 15.30486465 53922 TEVEL2-6 1 63215U 25052F 26062.17735064 .00022399 00000+0 76213-3 0 9996 2 63215 97.4039 318.5831 0004565 109.1661 251.0075 15.30430207 53872 TEVEL2-1 1 63217U 25052H 26062.50083193 .00022872 00000+0 78769-3 0 9998 2 63217 97.4012 318.6446 0004433 117.0619 243.1074 15.30034044 53918 TEVEL2-3 1 63218U 25052J 26062.49855127 .00022833 00000+0 78552-3 0 9998 2 63218 97.4017 318.6533 0004388 118.1970 241.9714 15.30068311 53913 TEVEL2-2 1 63219U 25052K 26062.23989883 .00021323 00000+0 73489-3 0 9995 2 63219 97.4014 318.3853 0004330 118.8590 241.3085 15.30024275 53876 TEVEL2-9 1 63237U 25052AD 26062.22111733 .00019787 00000+0 71810-3 0 9992 2 63237 97.4075 317.9475 0007378 142.8511 217.3240 15.28332917 53826 TEVEL2-7 1 63238U 25052AE 26062.17903920 .00020115 00000+0 73465-3 0 9999 2 63238 97.4079 317.8597 0007550 143.1956 216.9804 15.28119732 53812 TEVEL2-8 1 63239U 25052AF 26062.18596669 .00019886 00000+0 72688-3 0 9998 2 63239 97.4074 317.8477 0007422 143.7162 216.4583 15.28096706 53812 HADES-ICM 1 63492U 25052BN 26062.20166374 .00142271 00000+0 21041-2 0 9999 2 63492 97.3971 322.4226 0008288 123.4239 236.7809 15.54774470 54135 INNOSAT 16 (RS92S7) 1 64878U 25155C 26062.47952507 .00008598 00000+0 35671-3 0 9990 2 64878 97.4452 30.1200 0010196 187.0135 173.0961 15.24059671 64562 GEOSCAN 6 (RS92S6) 1 64879U 25155D 26062.42782690 .00014727 00000+0 54465-3 0 9993 2 64879 97.4451 30.8167 0007833 174.8537 185.2784 15.27772463 64602 GEOSCAN 1 (RS92S1) 1 64880U 25155E 26062.46532505 .00016178 00000+0 59059-3 0 9993 2 64880 97.4449 30.9242 0007702 174.9349 185.1970 15.28181331 64619 239ALFEROV (RS61S) 1 64881U 25155F 26062.49709641 .00019837 00000+0 69161-3 0 9994 2 64881 97.4456 31.2151 0007491 171.6120 188.5247 15.29646256 64636 GEOSCAN 2 (RS92S2) 1 64890U 25155Q 26062.47890392 .00015937 00000+0 57649-3 0 9991 2 64890 97.4448 31.0456 0007664 160.5807 199.5726 15.28485000 64624 GEOSCAN 5 (RS92S5) 1 64891U 25155R 26062.44320167 .00019995 00000+0 69023-3 0 9994 2 64891 97.4448 31.2568 0005995 174.9656 185.1646 15.29977196 64633 GEOSCAN 4 (RS92S4) 1 64892U 25155S 26062.43600445 .00019890 00000+0 68447-3 0 9997 2 64892 97.4450 31.2728 0005994 175.3128 184.8169 15.30079743 64632 GEOSCAN 3 (RS92S3) 1 64893U 25155T 26062.48458199 .00023982 00000+0 79271-3 0 9994 2 64893 97.4444 31.5007 0005696 174.4028 185.7278 15.31348326 64657 INNOSAT 3 (RS92S0) 1 64894U 25155U 26062.47209799 .00042539 00000+0 12059-2 0 9993 2 64894 97.4413 32.0936 0005208 163.8253 196.3158 15.36110963 64690